Location: Roussillon
(43.9008°N, 5.2947°E)
Time: 08:35:20
(UTC+00:00)

Cosmos 2151 - Pass Details

Date: 07 June 2020
Orbit: 580 x 602 km, 82.5° (Epoch: 14 July)

Event Time Altitude Azimuth Distance (km) Brightness Sun altitude
Exits shadow 03:17:06 - 222° (SW) 2,098 5.1 -6.5°
Reaches altitude 10° 03:17:34 10° 225° (SW) 1,933 4.9 -6.5°
Maximum altitude 03:21:18 29° 286° (WNW) 1,123 4.1 -6.0°
Drops below altitude 10° 03:25:03 10° 347° (NNW) 1,954 6.0 -5.4°
Sets 03:27:32 0° 359° (N) 2,863 7.1 -5.1°
